Regional Weather Roundup
Issued by NWS Midland/Odessa, TX

Skip options and go directly to product.
Home | Oldest Version | Previous Version | Current Version | All | Text Only | Save Text | Print | Product List | Glossary On

Skip product version selection by date and time.   
009
ASUS44 KMAF 300201
RWRMAF
MIDLAND AREA WEATHER ROUNDUP
NATIONAL WEATHER SERVICE MIDLAND TX
900 PM CDT WED JUL 29 2015

...IN SOUTHWEST TEXAS AND SOUTHEAST NEW MEXICO...

CITY           SKY/WX    TMP DP  RH WIND       PRES   REMARKS
ALPINE         CLEAR     79  60  52 CALM      30.22R
ANDREWS        MOCLDY    91  57  31 E9        30.08R
ARTESIA        MOCLDY    88  59  37 E10G17    30.10R
BIG SPRING     PTCLDY    90  59  35 E9        30.07R
CARLSBAD       MOCLDY    89  60  37 N7        30.05S
DRYDEN           N/A     93  57  29 E6        30.01R
FORT STOCKTON  CLEAR     90  52  27 SE12G20   30.05R
GUAD PASS      PTCLDY    77  57  50 NE17      30.23S
HOBBS          PTCLDY    86  55  35 E8        30.12S
MARFA          CLEAR     73  61  64 N9        30.20R
MIDLAND AIRPK  PTCLDY    94  55  26 E13G21    30.06R
MIDLAND INTL   LGT RAIN  81  65  58 N26G41    30.06R
ODESSA         PTCLDY    93  53  25 SE8       30.06R
PECOS          PTCLDY    87  58  37 S9        30.01R
PRESIDIO       LGT RAIN  80  63  55 MISG      30.02R
SEMINOLE       PTCLDY    87  58  38 E9        30.11R
SNYDER         CLEAR     89  64  43 E7        30.07R
WINK           CLEAR     94  50  22 SE8       30.01R
$$
...OTHER STATIONS IN TEXAS...

CITY           SKY/WX    TMP DP  RH WIND       PRES   REMARKS
ABILENE        PTCLDY    90  61  37 E7        30.05R
AMARILLO       PTCLDY    78  68  71 N8        30.19R
AUSTIN         PTCLDY    88  69  53 SE7       29.99R
BROWNSVILLE    CLEAR     83  75  77 SE10      30.00R
CORPUS CHRISTI MOCLDY    84  75  74 SE13      30.00R
DALLAS FTW     PTCLDY    92  60  34 SE7       29.98R
DEL RIO        CLEAR     94  59  31 E7        29.94R
EL PASO        CLOUDY    86  60  41 VRB3      30.10R
HOUSTON INT    PTCLDY    89  75  63 S7        29.99R
LUBBOCK        PTCLDY    84  63  49 E7        30.13R
SAN ANGELO     CLEAR     91  58  32 E8        30.00R
SAN ANTONIO    PTCLDY    92  69  47 SE16      30.00R
WACO           CLEAR     90  65  43 SE8       29.98R
WICHITA FALLS  NOT AVBL
$$
...OTHER LOCATIONS IN NEW MEXICO...

CITY           SKY/WX    TMP DP  RH WIND       PRES   REMARKS
ALAMAGORDO     MOCLDY    72  61  68 CALM      30.19R
ALBUQUERQUE    LGT RAIN  72  59  63 S9        30.29R
CANNON AFB     NOT AVBL
CLOVIS         CLOUDY    81  64  57 E6        30.21S
HOLLOMAN AFB   MOCLDY    75  61  60 SW17      30.15R
ROSWELL        MOCLDY    88  61  40 NE13      30.10S
RUIDOSO          N/A    N/A N/A N/A MISG        N/A
SANTA FE       RAIN      62  58  86 S9        30.39R FOG
TRUTH OR CONSE MOCLDY    76  61  59 E10       30.21R
TUCUMCARI      PTCLDY    76  66  71 NE8       30.20R
$$

USA.gov is the U.S. government's official web portal to all federal, state and local government web resources and services.